Regional Weather Roundup
Issued by NWS Bismarck, ND

Home | Current Version | Previous Version | Text Only | Print | Product List | Glossary On
Versions: 1 2 3 4 5 6 7 8 9 10 11 12 13 14 15 16 17 18 19 20 21 22 23 24 25 26 27 28 29 30 31 32 33 34 35 36 37 38 39 40 41 42 43 44 45 46 47 48 49 50
000
ASUS43 KBIS 201002
RWRBIS

NWR BROADCAST TEXT
NATIONAL WEATHER SERVICE BISMARCK ND
400 AM CST FRI JAN 20 2017

NOTE: "FAIR" INDICATES FEW OR NO CLOUDS BELOW 12,000 FEET WITH NO
SIGNIFICANT WEATHER AND/OR OBSTRUCTIONS TO VISIBILITY.


CITY           SKY/WX    TMP DP  RH WIND       PRES   REMARKS
WILLISTON      FAIR      16  14  92 S3        29.42S FOG
MINOT          FAIR      20  16  84 SW9       29.38F WCI   9
MINOT AFB      FAIR      14  11  87 W5        29.38F WCI   6
BISMARCK       FOG       20  19  96 NW3       29.46S VSB 1/4
DICKINSON      FAIR      19  16  88 W7        29.37F WCI  10
GARRISON         N/A      9   6  88 E3        29.40F
HETTINGER ARPT FAIR      13  11  92 W5        29.40S WCI   5
JAMESTOWN      FOG       33  33 100 SE9       29.47F VSB 1/2
CARRINGTON     CLOUDY    32  32 100 S9        29.48F FOG
HAZEN            N/A    N/A N/A N/A CALM      29.44S
MANDAN         FOG       21  19  93 S5        29.44F VSB 1/4 WCI  15
STANLEY        FAIR      16  16 100 CALM      29.40F
WATFORD CITY   FAIR      16  14  93 SW6       29.41S WCI   7
$$

CITY           SKY/WX    TMP DP  RH WIND       PRES   REMARKS
GRAND FORKS    CLOUDY    35  33  92 S10       29.54S FOG
GRAND FORKS AF CLOUDY    34  33  99 S9        29.53F FOG
DEVILS LAKE    FOG       29  29 100 S7        29.47F VSB 3/4
FARGO          CLOUDY    49  36  61 SE12      29.54F HAZE
GRAFTON        FOG       34  34 100 SE12      29.55S VSB 1/4
GWINNER        CLOUDY    34  34 100 SE9       29.51F
$$

CITY           SKY/WX    TMP DP  RH WIND       PRES   REMARKS
ABERDEEN       CLOUDY    34  32  92 S9        29.47F FOG
MOBRIDGE       FOG       25  21  85 NW5       29.39F VSB 1/2 WCI  19
BUFFALO          N/A     26  19  74 NW18      29.33F WCI  13
RAPID CITY     FAIR      27  19  72 NW9       29.38F WCI  18
GLASGOW        MOCLDY    26  23  88 W9        29.44R WCI  17
SIDNEY         FAIR      15  13  91 SW7       29.43R WCI   5
WOLF POINT     FAIR      20  17  88 SW5       29.44S WCI  13
MILES CITY     FAIR      18  14  84 SE7       29.47S WCI   9
BAKER          FAIR      18  15  88 NW3       29.44S
$$

CITY           SKY/WX    TMP DP  RH WIND       PRES   REMARKS
BILLINGS       CLOUDY    32  30  92 SW12      29.50R
GREAT FALLS    FAIR      34  26  72 SW9       29.46S
$$





USA.gov is the U.S. government's official web portal to all federal, state and local government web resources and services.